THAICOM 4 (28786 NORAD) Tracking and Keplerian Element Data

This shows tracking and keplerian element data for the satellite.

Feedback or suggestion? Click here.




ElementValue
Catalog28786
NameTHAICOM 4
Epoch Orbit4725
Epoch Day34.83160983
Epoch Year2025
RAAN86.3552
Inclination0.015
Eccentricity0.0002247
Argument of Perigee216.3054
Mean Anonmoly250.4249
Mean Motion1.00271576
Decay Rate-3.58E-06
L11 28786U 05028A 25034.83160983 -.00000358 00000+0 00000+0 0 9993
L22 28786 0.0150 86.3552 0002247 216.3054 250.4249 1.00271576 47257



Live tracking and technical data element details for THAICOM 4 (NORAD 28786). THAICOM 4 can be tracked NOW for your location showing map with azimuth and elevation plus other details from your city location.







IsCatalogInMostPopularTable: catalog: 28786, numindb: 431
Update: records affected: 1



GetName: 28786 THAICOM 4

Hit Count: updated at: Fri, 16 May 2025 10:44:10 GMT